• In Österreich
  • Länderverzeichnis
  • Für 7 Tage
  • Wassertemperatur
  • Satellitenkarten
  • Wetterkarte
  • News
  • Widgets
  • user-avatar
    Anmelden

    Stündliche Wetter Warwick

    Heute, 19 September, Mittwoch

    Zeit Temperatur Niederschläge Wind Luftdruck Luftfeuchtigkeit
    00:00 +17°C° 0 mm 4 m/S 752 mmHg 87%
    01:00 +16°C° 0 mm 5 m/S 752 mmHg 88%
    02:00 +15°C° 0 mm 5 m/S 752 mmHg 90%
    03:00 +15°C° 0 mm 5 m/S 752 mmHg 92%
    04:00 +15°C° 0 mm 6 m/S 751 mmHg 90%
    05:00 +16°C° 0 mm 6 m/S 751 mmHg 88%
    06:00 +16°C° 0 mm 7 m/S 751 mmHg 86%
    07:00 +16°C° 0 mm 8 m/S 751 mmHg 81%
    08:00 +17°C° 0 mm 9 m/S 751 mmHg 77%
    09:00 +18°C° 0 mm 10 m/S 751 mmHg 73%
    10:00 +19°C° 0 mm 10 m/S 751 mmHg 69%
    11:00 +19°C° 0 mm 11 m/S 751 mmHg 65%
    12:00 +21°C° 0 mm 11 m/S 751 mmHg 62%
    13:00 +19°C° 0.1 mm 10 m/S 751 mmHg 66%
    14:00 +19°C° 0.1 mm 10 m/S 751 mmHg 69%
    15:00 +18°C° 0.1 mm 9 m/S 751 mmHg 73%
    16:00 +17°C° 0 mm 8 m/S 752 mmHg 71%
    17:00 +16°C° 0 mm 7 m/S 752 mmHg 69%
    18:00 +15°C° 0 mm 6 m/S 753 mmHg 67%
    19:00 +14°C° 0 mm 6 m/S 754 mmHg 69%
    20:00 +13°C° 0 mm 6 m/S 754 mmHg 70%
    21:00 +12°C° 0 mm 5 m/S 755 mmHg 71%
    22:00 +12°C° 0 mm 4 m/S 755 mmHg 74%
    23:00 +12°C° 0 mm 4 m/S 755 mmHg 76%

    Morgen, 20 September, Donnerstag

    Zeit Temperatur Niederschläge Wind Luftdruck Luftfeuchtigkeit
    00:00 +12°C° 0 mm 3 m/S 754 mmHg 78%
    01:00 +12°C° 0.8 mm 3 m/S 754 mmHg 82%
    02:00 +12°C° 0.8 mm 3 m/S 754 mmHg 86%
    03:00 +13°C° 0.8 mm 3 m/S 753 mmHg 89%
    04:00 +13°C° 0.7 mm 3 m/S 753 mmHg 90%
    05:00 +14°C° 0.7 mm 4 m/S 753 mmHg 90%
    06:00 +14°C° 0.7 mm 4 m/S 752 mmHg 91%
    07:00 +14°C° 2.1 mm 4 m/S 752 mmHg 91%
    08:00 +15°C° 2.1 mm 5 m/S 752 mmHg 91%
    09:00 +15°C° 2.1 mm 5 m/S 752 mmHg 92%
    10:00 +15°C° 1.1 mm 5 m/S 752 mmHg 91%
    11:00 +16°C° 1.1 mm 6 m/S 751 mmHg 91%
    12:00 +16°C° 1.1 mm 6 m/S 751 mmHg 91%
    13:00 +17°C° 1.5 mm 7 m/S 750 mmHg 90%
    14:00 +17°C° 1.5 mm 8 m/S 749 mmHg 89%
    15:00 +17°C° 1.5 mm 8 m/S 748 mmHg 88%
    16:00 +17°C° 0.3 mm 9 m/S 747 mmHg 86%
    17:00 +17°C° 0.3 mm 9 m/S 746 mmHg 85%
    18:00 +17°C° 0.3 mm 10 m/S 745 mmHg 83%
    19:00 +17°C° 1.9 mm 10 m/S 744 mmHg 85%
    20:00 +17°C° 1.9 mm 10 m/S 743 mmHg 87%
    21:00 +17°C° 1.9 mm 10 m/S 742 mmHg 88%
    22:00 +17°C° 1.4 mm 11 m/S 742 mmHg 87%
    23:00 +16°C° 1.4 mm 11 m/S 742 mmHg 85%

    übermorgen, 21 September, Freitag

    Zeit Temperatur Niederschläge Wind Luftdruck Luftfeuchtigkeit
    00:00 +16°C° 1.4 mm 11 m/S 742 mmHg 83%
    01:00 +13°C° 0 mm 10 m/S 743 mmHg 81%
    02:00 +11°C° 0 mm 9 m/S 744 mmHg 80%
    03:00 +7°C° 0 mm 8 m/S 745 mmHg 78%
    04:00 +7°C° 0 mm 8 m/S 746 mmHg 78%
    05:00 +7°C° 0 mm 8 m/S 747 mmHg 77%
    06:00 +6°C° 0 mm 7 m/S 748 mmHg 77%
    07:00 +7°C° 0 mm 8 m/S 749 mmHg 72%
    08:00 +10°C° 0 mm 9 m/S 749 mmHg 66%
    09:00 +11°C° 0 mm 10 m/S 749 mmHg 61%
    10:00 +11°C° 0.1 mm 10 m/S 750 mmHg 61%
    11:00 +12°C° 0.1 mm 10 m/S 751 mmHg 61%
    12:00 +12°C° 0.1 mm 11 m/S 751 mmHg 61%
    13:00 +12°C° 0.1 mm 10 m/S 752 mmHg 60%
    14:00 +13°C° 0.1 mm 10 m/S 752 mmHg 60%
    15:00 +13°C° 0.1 mm 9 m/S 753 mmHg 59%
    16:00 +12°C° 0 mm 8 m/S 754 mmHg 63%
    17:00 +11°C° 0 mm 7 m/S 754 mmHg 66%
    18:00 +12°C° 0 mm 5 m/S 755 mmHg 70%
    19:00 +10°C° 0 mm 5 m/S 756 mmHg 72%
    20:00 +9°C° 0 mm 5 m/S 756 mmHg 74%
    21:00 +10°C° 0 mm 4 m/S 757 mmHg 76%
    22:00 +8°C° 0 mm 4 m/S 758 mmHg 79%
    23:00 +8°C° 0 mm 4 m/S 758 mmHg 81%

    22 September, Samstag

    Zeit Temperatur Niederschläge Wind Luftdruck Luftfeuchtigkeit
    00:00 +7°C° 0 mm 4 m/S 758 mmHg 83%
    01:00 +7°C° 0 mm 4 m/S 759 mmHg 84%
    02:00 +8°C° 0 mm 3 m/S 759 mmHg 85%
    03:00 +7°C° 0 mm 3 m/S 759 mmHg 86%
    04:00 +7°C° 0 mm 3 m/S 760 mmHg 87%
    05:00 +7°C° 0 mm 3 m/S 760 mmHg 87%
    06:00 +7°C° 0 mm 3 m/S 760 mmHg 88%
    07:00 +8°C° 0 mm 3 m/S 761 mmHg 81%
    08:00 +10°C° 0 mm 4 m/S 761 mmHg 75%
    09:00 +11°C° 0 mm 4 m/S 761 mmHg 68%
    10:00 +12°C° 0 mm 4 m/S 762 mmHg 64%
    11:00 +13°C° 0 mm 4 m/S 762 mmHg 61%
    12:00 +14°C° 0 mm 4 m/S 762 mmHg 57%
    13:00 +14°C° 0 mm 4 m/S 761 mmHg 56%
    14:00 +14°C° 0 mm 4 m/S 761 mmHg 56%
    15:00 +15°C° 0 mm 4 m/S 761 mmHg 55%
    16:00 +14°C° 0 mm 3 m/S 761 mmHg 59%
    17:00 +14°C° 0 mm 2 m/S 761 mmHg 63%
    18:00 +13°C° 0 mm 1 m/S 761 mmHg 67%
    19:00 +13°C° 0.5 mm 1 m/S 760 mmHg 72%
    20:00 +12°C° 0.5 mm 1 m/S 760 mmHg 78%
    21:00 +12°C° 0.5 mm 1 m/S 760 mmHg 83%
    22:00 +10°C° 2 mm 3 m/S 759 mmHg 86%
    23:00 +10°C° 2 mm 4 m/S 757 mmHg 89%

    23 September, Sonntag

    Zeit Temperatur Niederschläge Wind Luftdruck Luftfeuchtigkeit
    00:00 +9°C° 2 mm 5 m/S 756 mmHg 91%
    01:00 +9°C° 1.3 mm 6 m/S 754 mmHg 91%
    02:00 +9°C° 1.3 mm 8 m/S 752 mmHg 91%
    03:00 +10°C° 1.3 mm 9 m/S 750 mmHg 91%
    04:00 +11°C° 1 mm 9 m/S 748 mmHg 92%
    05:00 +13°C° 1 mm 8 m/S 746 mmHg 93%
    06:00 +15°C° 1 mm 7 m/S 744 mmHg 95%
    07:00 +16°C° 0.5 mm 9 m/S 741 mmHg 92%
    08:00 +17°C° 0.5 mm 10 m/S 739 mmHg 90%
    09:00 +18°C° 0.5 mm 11 m/S 737 mmHg 87%
    10:00 +17°C° 0.7 mm 11 m/S 735 mmHg 85%
    11:00 +15°C° 0.7 mm 12 m/S 733 mmHg 84%
    12:00 +14°C° 0.7 mm 12 m/S 731 mmHg 82%
    13:00 +14°C° 0.2 mm 12 m/S 732 mmHg 81%
    14:00 +14°C° 0.2 mm 12 m/S 732 mmHg 80%
    15:00 +13°C° 0.2 mm 12 m/S 733 mmHg 79%
    16:00 +12°C° 0.2 mm 14 m/S 736 mmHg 76%
    17:00 +10°C° 0.2 mm 16 m/S 740 mmHg 72%
    18:00 +7°C° 0.2 mm 17 m/S 743 mmHg 69%
    19:00 +7°C° 0 mm 16 m/S 747 mmHg 67%
    20:00 +8°C° 0 mm 14 m/S 751 mmHg 65%
    21:00 +8°C° 0 mm 12 m/S 755 mmHg 64%
    22:00 +7°C° 0 mm 11 m/S 757 mmHg 64%
    23:00 +6°C° 0 mm 9 m/S 759 mmHg 64%

    24 September, Montag

    Zeit Temperatur Niederschläge Wind Luftdruck Luftfeuchtigkeit
    00:00 +6°C° 0 mm 8 m/S 761 mmHg 64%
    01:00 +5°C° 0 mm 7 m/S 762 mmHg 64%
    02:00 +5°C° 0 mm 6 m/S 763 mmHg 64%
    03:00 +6°C° 0 mm 5 m/S 765 mmHg 65%
    04:00 +5°C° 0 mm 5 m/S 766 mmHg 65%
    05:00 +5°C° 0 mm 4 m/S 767 mmHg 65%
    06:00 +4°C° 0 mm 4 m/S 768 mmHg 65%
    07:00 +6°C° 0 mm 4 m/S 769 mmHg 62%
    08:00 +7°C° 0 mm 4 m/S 769 mmHg 60%
    09:00 +10°C° 0 mm 4 m/S 770 mmHg 57%
    10:00 +11°C° 0 mm 4 m/S 770 mmHg 57%
    11:00 +12°C° 0 mm 4 m/S 771 mmHg 57%
    12:00 +13°C° 0 mm 4 m/S 771 mmHg 58%
    13:00 +13°C° 0 mm 4 m/S 771 mmHg 57%
    14:00 +13°C° 0 mm 3 m/S 771 mmHg 57%
    15:00 +14°C° 0 mm 3 m/S 771 mmHg 57%
    16:00 +13°C° 0 mm 3 m/S 771 mmHg 61%
    17:00 +12°C° 0 mm 2 m/S 771 mmHg 66%
    18:00 +10°C° 0 mm 2 m/S 772 mmHg 71%
    19:00 +10°C° 0 mm 2 m/S 772 mmHg 73%
    20:00 +9°C° 0 mm 2 m/S 772 mmHg 76%
    21:00 +8°C° 0 mm 2 m/S 773 mmHg 79%
    22:00 +8°C° 0 mm 2 m/S 773 mmHg 80%
    23:00 +8°C° 0 mm 1 m/S 773 mmHg 82%
    Mehr zeigen